Wetterdaten: Donnerstag, 24.05.2018
Datum Zeit Temp. A. Temp. A. min Temp. A. max Feuchte A. Bod.Feucht 4 Luftdruck Regen Wind Richtung Richtung Sonnenschein ET Solar Taupunkt Windchill Windben Empfang
24.05.2018 00:00 14,3 C 14,3 C 14,4 C 92 % 0 cb 1016,8 hPa 0,0 l/m 4,8 km/h (1 Bft) N-NW 337 0 min 0,000 mm 0 W/m 13,0 C 14,3 C 14,5 km/h (3 Bft) 100,00 %
24.05.2018 00:10 14,3 C 14,3 C 14,3 C 93 % 0 cb 1016,8 hPa 0,0 l/m 4,8 km/h (1 Bft) N 360 0 min 0,000 mm 0 W/m 13,2 C 14,3 C 12,9 km/h (3 Bft) 100,00 %
24.05.2018 00:20 14,3 C 14,3 C 14,3 C 93 % 0 cb 1016,7 hPa 0,0 l/m 4,8 km/h (1 Bft) N 360 0 min 0,000 mm 0 W/m 13,2 C 14,3 C 12,9 km/h (3 Bft) 100,00 %
24.05.2018 00:30 14,3 C 14,3 C 14,3 C 93 % 0 cb 1016,6 hPa 0,0 l/m 4,8 km/h (1 Bft) N-NW 337 0 min 0,000 mm 0 W/m 13,2 C 14,3 C 12,9 km/h (3 Bft) 100,00 %
24.05.2018 00:40 14,3 C 14,3 C 14,3 C 92 % 0 cb 1016,6 hPa 0,0 l/m 4,8 km/h (1 Bft) N 360 0 min 0,000 mm 0 W/m 13,0 C 14,3 C 12,9 km/h (3 Bft) 100,00 %
24.05.2018 00:50 14,3 C 14,3 C 14,3 C 92 % 0 cb 1016,6 hPa 0,0 l/m 4,8 km/h (1 Bft) NO 45 0 min 0,000 mm 0 W/m 13,0 C 14,3 C 11,3 km/h (2 Bft) 100,00 %
24.05.2018 01:00 14,3 C 14,3 C 14,3 C 92 % 0 cb 1016,7 hPa 0,0 l/m 3,2 km/h (1 Bft) N-NO 22 0 min 0,000 mm 0 W/m 13,0 C 14,3 C 11,3 km/h (2 Bft) 100,00 %
24.05.2018 01:10 14,2 C 14,2 C 14,3 C 92 % 0 cb 1016,6 hPa 0,0 l/m 3,2 km/h (1 Bft) N-NO 22 0 min 0,000 mm 0 W/m 12,9 C 14,2 C 9,7 km/h (2 Bft) 100,00 %
24.05.2018 01:20 14,2 C 14,2 C 14,3 C 92 % 0 cb 1016,6 hPa 0,0 l/m 4,8 km/h (1 Bft) NO 45 0 min 0,000 mm 0 W/m 12,9 C 14,2 C 12,9 km/h (3 Bft) 100,00 %
24.05.2018 01:30 14,2 C 14,2 C 14,2 C 93 % 0 cb 1016,5 hPa 0,0 l/m 4,8 km/h (1 Bft) N-NO 22 0 min 0,000 mm 0 W/m 13,1 C 14,2 C 14,5 km/h (3 Bft) 100,00 %
24.05.2018 01:40 14,1 C 14,1 C 14,2 C 93 % 0 cb 1016,5 hPa 0,0 l/m 4,8 km/h (1 Bft) N-NO 22 0 min 0,000 mm 0 W/m 13,0 C 14,1 C 11,3 km/h (2 Bft) 100,00 %
24.05.2018 01:50 14,1 C 14,1 C 14,1 C 93 % 0 cb 1016,4 hPa 0,0 l/m 4,8 km/h (1 Bft) N-NO 22 0 min 0,000 mm 0 W/m 13,0 C 14,1 C 12,9 km/h (3 Bft) 100,00 %
24.05.2018 02:00 14,1 C 14,1 C 14,1 C 93 % 0 cb 1016,4 hPa 0,0 l/m 6,4 km/h (2 Bft) N-NO 22 0 min 0,000 mm 0 W/m 13,0 C 14,1 C 12,9 km/h (3 Bft) 100,00 %
24.05.2018 02:10 14,1 C 14,1 C 14,2 C 92 % 0 cb 1016,4 hPa 0,0 l/m 6,4 km/h (2 Bft) N-NO 22 0 min 0,000 mm 0 W/m 12,8 C 14,1 C 12,9 km/h (3 Bft) 100,00 %
24.05.2018 02:20 14,1 C 14,1 C 14,1 C 92 % 0 cb 1016,4 hPa 0,0 l/m 4,8 km/h (1 Bft) NO 45 0 min 0,000 mm 0 W/m 12,8 C 14,1 C 14,5 km/h (3 Bft) 100,00 %
24.05.2018 02:30 14,1 C 14,1 C 14,1 C 92 % 0 cb 1016,4 hPa 0,0 l/m 4,8 km/h (1 Bft) N-NO 22 0 min 0,000 mm 0 W/m 12,8 C 14,1 C 11,3 km/h (2 Bft) 100,00 %
24.05.2018 02:40 14,1 C 14,1 C 14,1 C 92 % 0 cb 1016,4 hPa 0,0 l/m 3,2 km/h (1 Bft) N-NO 22 0 min 0,000 mm 0 W/m 12,8 C 14,1 C 9,7 km/h (2 Bft) 99,12 %
24.05.2018 02:50 14,0 C 14,0 C 14,1 C 92 % 0 cb 1016,3 hPa 0,0 l/m 3,2 km/h (1 Bft) N-NW 337 0 min 0,000 mm 0 W/m 12,7 C 14,0 C 9,7 km/h (2 Bft) 100,00 %
24.05.2018 03:00 13,9 C 13,9 C 14,0 C 92 % 0 cb 1016,4 hPa 0,0 l/m 0,0 km/h (0 Bft) N-NO 22 0 min 0,000 mm 0 W/m 12,6 C 13,9 C 6,4 km/h (2 Bft) 100,00 %
24.05.2018 03:10 14,0 C 13,9 C 14,0 C 91 % 0 cb 1016,5 hPa 0,0 l/m 1,6 km/h (1 Bft) N-NO 22 0 min 0,000 mm 0 W/m 12,6 C 14,0 C 6,4 km/h (2 Bft) 100,00 %
24.05.2018 03:20 13,9 C 13,9 C 14,0 C 91 % 0 cb 1016,4 hPa 0,0 l/m 1,6 km/h (1 Bft) N-NO 22 0 min 0,000 mm 0 W/m 12,5 C 13,9 C 4,8 km/h (1 Bft) 100,00 %
24.05.2018 03:30 13,8 C 13,8 C 13,9 C 92 % 0 cb 1016,3 hPa 0,0 l/m 3,2 km/h (1 Bft) N 360 0 min 0,000 mm 0 W/m 12,5 C 13,8 C 6,4 km/h (2 Bft) 100,00 %
24.05.2018 03:40 13,8 C 13,8 C 13,8 C 92 % 0 cb 1016,3 hPa 0,0 l/m 4,8 km/h (1 Bft) N 360 0 min 0,000 mm 0 W/m 12,5 C 13,8 C 12,9 km/h (3 Bft) 100,00 %
24.05.2018 03:50 13,9 C 13,8 C 13,9 C 92 % 0 cb 1016,3 hPa 0,0 l/m 3,2 km/h (1 Bft) N 360 0 min 0,000 mm 0 W/m 12,6 C 13,9 C 9,7 km/h (2 Bft) 100,00 %
24.05.2018 04:00 13,9 C 13,9 C 13,9 C 91 % 0 cb 1016,4 hPa 0,0 l/m 4,8 km/h (1 Bft) N-NO 22 0 min 0,000 mm 0 W/m 12,5 C 13,9 C 8,0 km/h (2 Bft) 98,25 %
24.05.2018 04:10 13,8 C 13,8 C 13,9 C 92 % 0 cb 1016,3 hPa 0,0 l/m 3,2 km/h (1 Bft) N-NO 22 0 min 0,000 mm 0 W/m 12,5 C 13,8 C 6,4 km/h (2 Bft) 100,00 %
24.05.2018 04:20 13,8 C 13,7 C 13,8 C 92 % 0 cb 1016,3 hPa 0,0 l/m 3,2 km/h (1 Bft) N 360 0 min 0,000 mm 0 W/m 12,5 C 13,8 C 8,0 km/h (2 Bft) 100,00 %
24.05.2018 04:30 13,8 C 13,7 C 13,8 C 92 % 0 cb 1016,2 hPa 0,0 l/m 3,2 km/h (1 Bft) N-NO 22 0 min 0,000 mm 0 W/m 12,5 C 13,8 C 8,0 km/h (2 Bft) 100,00 %
24.05.2018 04:40 13,7 C 13,7 C 13,8 C 91 % 0 cb 1016,2 hPa 0,0 l/m 3,2 km/h (1 Bft) N-NO 22 0 min 0,000 mm 0 W/m 12,3 C 13,7 C 6,4 km/h (2 Bft) 100,00 %
24.05.2018 04:50 13,6 C 13,6 C 13,7 C 91 % 0 cb 1016,1 hPa 0,0 l/m 4,8 km/h (1 Bft) N-NO 22 0 min 0,000 mm 0 W/m 12,2 C 13,6 C 9,7 km/h (2 Bft) 100,00 %
24.05.2018 05:00 13,7 C 13,6 C 13,7 C 91 % 0 cb 1016,0 hPa 0,0 l/m 3,2 km/h (1 Bft) N-NO 22 0 min 0,000 mm 0 W/m 12,3 C 13,7 C 6,4 km/h (2 Bft) 100,00 %
24.05.2018 05:10 13,7 C 13,7 C 13,7 C 91 % 0 cb 1016,0 hPa 0,0 l/m 4,8 km/h (1 Bft) N-NO 22 0 min 0,000 mm 0 W/m 12,3 C 13,7 C 11,3 km/h (2 Bft) 100,00 %
24.05.2018 05:20 13,7 C 13,7 C 13,8 C 90 % 0 cb 1015,9 hPa 0,0 l/m 1,6 km/h (1 Bft) N-NO 22 0 min 0,000 mm 0 W/m 12,1 C 13,7 C 8,0 km/h (2 Bft) 100,00 %
24.05.2018 05:30 13,5 C 13,5 C 13,7 C 91 % 0 cb 1016,3 hPa 0,0 l/m 1,6 km/h (1 Bft) N-NO 22 0 min 0,000 mm 0 W/m 12,1 C 13,5 C 4,8 km/h (1 Bft) 100,00 %
24.05.2018 05:40 13,3 C 13,3 C 13,5 C 91 % 0 cb 1016,3 hPa 0,0 l/m 1,6 km/h (1 Bft) NO 45 0 min 0,000 mm 0 W/m 11,9 C 13,3 C 4,8 km/h (1 Bft) 100,00 %
24.05.2018 05:50 13,2 C 13,2 C 13,3 C 92 % 0 cb 1016,3 hPa 0,0 l/m 3,2 km/h (1 Bft) N-NO 22 0 min 0,000 mm 5 W/m 11,9 C 13,2 C 8,0 km/h (2 Bft) 100,00 %
24.05.2018 06:00 13,1 C 13,1 C 13,2 C 93 % 0 cb 1016,3 hPa 0,0 l/m 4,8 km/h (1 Bft) N-NO 22 0 min 0,000 mm 12 W/m 12,0 C 13,1 C 6,4 km/h (2 Bft) 100,00 %
24.05.2018 06:10 13,1 C 13,0 C 13,1 C 93 % 0 cb 1016,3 hPa 0,0 l/m 3,2 km/h (1 Bft) N-NO 22 0 min 0,000 mm 30 W/m 12,0 C 13,1 C 8,0 km/h (2 Bft) 99,56 %
24.05.2018 06:20 13,2 C 13,1 C 13,2 C 93 % 0 cb 1016,1 hPa 0,0 l/m 3,2 km/h (1 Bft) N 360 0 min 0,000 mm 46 W/m 12,1 C 13,2 C 6,4 km/h (2 Bft) 100,00 %
24.05.2018 06:30 13,4 C 13,2 C 13,4 C 93 % 0 cb 1016,2 hPa 0,0 l/m 1,6 km/h (1 Bft) N-NO 22 0 min 0,000 mm 62 W/m 12,3 C 13,4 C 8,0 km/h (2 Bft) 100,00 %
24.05.2018 06:40 13,6 C 13,4 C 13,6 C 93 % 0 cb 1016,2 hPa 0,0 l/m 3,2 km/h (1 Bft) N-NO 22 0 min 0,000 mm 83 W/m 12,5 C 13,6 C 6,4 km/h (2 Bft) 100,00 %
24.05.2018 06:50 13,8 C 13,6 C 13,8 C 92 % 0 cb 1016,0 hPa 0,0 l/m 3,2 km/h (1 Bft) N-NO 22 0 min 0,000 mm 118 W/m 12,5 C 13,8 C 8,0 km/h (2 Bft) 98,68 %
24.05.2018 07:00 14,3 C 13,8 C 14,3 C 91 % 0 cb 1016,1 hPa 0,0 l/m 3,2 km/h (1 Bft) N 360 0 min 0,025 mm 139 W/m 12,8 C 14,3 C 6,4 km/h (2 Bft) 100,00 %
24.05.2018 07:10 14,8 C 14,3 C 14,8 C 90 % 0 cb 1015,9 hPa 0,0 l/m 3,2 km/h (1 Bft) N-NO 22 10 min 0,000 mm 192 W/m 13,2 C 14,8 C 6,4 km/h (2 Bft) 100,00 %
24.05.2018 07:20 15,3 C 14,8 C 15,3 C 89 % 0 cb 1015,9 hPa 0,0 l/m 3,2 km/h (1 Bft) N-NO 22 10 min 0,000 mm 239 W/m 13,5 C 15,3 C 9,7 km/h (2 Bft) 100,00 %
24.05.2018 07:30 15,8 C 15,4 C 15,8 C 87 % 0 cb 1015,8 hPa 0,0 l/m 3,2 km/h (1 Bft) N 360 10 min 0,000 mm 253 W/m 13,6 C 15,8 C 9,7 km/h (2 Bft) 100,00 %
24.05.2018 07:40 15,9 C 15,8 C 16,0 C 85 % 0 cb 1015,9 hPa 0,0 l/m 4,8 km/h (1 Bft) NO 45 10 min 0,000 mm 234 W/m 13,4 C 15,9 C 11,3 km/h (2 Bft) 100,00 %
24.05.2018 07:50 16,1 C 15,9 C 16,1 C 85 % 0 cb 1016,0 hPa 0,0 l/m 4,8 km/h (1 Bft) N-NO 22 10 min 0,000 mm 287 W/m 13,6 C 16,1 C 9,7 km/h (2 Bft) 100,00 %
24.05.2018 08:00 16,0 C 16,0 C 16,1 C 85 % 0 cb 1016,2 hPa 0,0 l/m 3,2 km/h (1 Bft) N-NO 22 10 min 0,127 mm 301 W/m 13,5 C 16,0 C 8,0 km/h (2 Bft) 100,00 %
24.05.2018 08:10 16,0 C 16,0 C 16,0 C 85 % 0 cb 1016,2 hPa 0,0 l/m 1,6 km/h (1 Bft) NO 45 10 min 0,000 mm 160 W/m 13,5 C 16,0 C 6,4 km/h (2 Bft) 100,00 %
24.05.2018 08:20 15,9 C 15,9 C 16,0 C 86 % 0 cb 1016,2 hPa 0,0 l/m 1,6 km/h (1 Bft) NO 45 10 min 0,000 mm 163 W/m 13,6 C 15,9 C 6,4 km/h (2 Bft) 100,00 %
24.05.2018 08:30 15,8 C 15,8 C 16,0 C 86 % 0 cb 1016,4 hPa 0,0 l/m 3,2 km/h (1 Bft) N 360 10 min 0,000 mm 153 W/m 13,5 C 15,8 C 9,7 km/h (2 Bft) 100,00 %
24.05.2018 08:40 15,8 C 15,8 C 15,8 C 86 % 0 cb 1016,4 hPa 0,0 l/m 4,8 km/h (1 Bft) N-NO 22 10 min 0,000 mm 155 W/m 13,5 C 15,8 C 8,0 km/h (2 Bft) 98,68 %
24.05.2018 08:50 15,8 C 15,8 C 15,8 C 87 % 0 cb 1016,6 hPa 0,0 l/m 3,2 km/h (1 Bft) N-NO 22 10 min 0,000 mm 176 W/m 13,6 C 15,8 C 9,7 km/h (2 Bft) 100,00 %
24.05.2018 09:00 15,8 C 15,8 C 15,8 C 86 % 0 cb 1016,7 hPa 0,0 l/m 4,8 km/h (1 Bft) N-NO 22 10 min 0,102 mm 176 W/m 13,5 C 15,8 C 8,0 km/h (2 Bft) 100,00 %
24.05.2018 09:10 15,9 C 15,8 C 15,9 C 86 % 0 cb 1016,7 hPa 0,0 l/m 1,6 km/h (1 Bft) N-NO 22 10 min 0,000 mm 155 W/m 13,6 C 15,9 C 4,8 km/h (1 Bft) 100,00 %
24.05.2018 09:20 16,1 C 15,9 C 16,1 C 87 % 0 cb 1016,7 hPa 0,0 l/m 0,0 km/h (0 Bft) N-NO 22 10 min 0,000 mm 165 W/m 13,9 C 16,1 C 3,2 km/h (1 Bft) 100,00 %
24.05.2018 09:30 16,2 C 16,1 C 16,2 C 87 % 0 cb 1016,6 hPa 0,0 l/m 1,6 km/h (1 Bft) N-NO 22 10 min 0,000 mm 169 W/m 14,0 C 16,2 C 4,8 km/h (1 Bft) 100,00 %
24.05.2018 09:40 16,4 C 16,3 C 16,4 C 86 % 0 cb 1016,5 hPa 0,0 l/m 0,0 km/h (0 Bft) N 0 10 min 0,000 mm 169 W/m 14,1 C 16,4 C 0,0 km/h (0 Bft) 100,00 %
24.05.2018 09:50 16,6 C 16,4 C 16,6 C 85 % 0 cb 1016,5 hPa 0,0 l/m 0,0 km/h (0 Bft) NO 45 10 min 0,000 mm 216 W/m 14,1 C 16,6 C 3,2 km/h (1 Bft) 100,00 %
24.05.2018 10:00 16,8 C 16,6 C 16,8 C 84 % 0 cb 1016,6 hPa 0,0 l/m 1,6 km/h (1 Bft) O-SO 112 10 min 0,102 mm 297 W/m 14,1 C 16,8 C 6,4 km/h (2 Bft) 100,00 %
24.05.2018 10:10 17,1 C 16,8 C 17,1 C 83 % 0 cb 1016,6 hPa 0,0 l/m 1,6 km/h (1 Bft) O 90 10 min 0,000 mm 346 W/m 14,2 C 17,1 C 6,4 km/h (2 Bft) 100,00 %
24.05.2018 10:20 17,5 C 17,1 C 17,5 C 83 % 0 cb 1016,6 hPa 0,0 l/m 1,6 km/h (1 Bft) O 90 10 min 0,000 mm 438 W/m 14,6 C 17,5 C 9,7 km/h (2 Bft) 100,00 %
24.05.2018 10:30 18,1 C 17,5 C 18,1 C 81 % 0 cb 1016,5 hPa 0,0 l/m 3,2 km/h (1 Bft) O-SO 112 10 min 0,000 mm 664 W/m 14,8 C 18,1 C 8,0 km/h (2 Bft) 100,00 %
24.05.2018 10:40 18,4 C 18,1 C 18,4 C 80 % 0 cb 1016,5 hPa 0,0 l/m 3,2 km/h (1 Bft) SO 135 10 min 0,000 mm 835 W/m 14,9 C 18,4 C 6,4 km/h (2 Bft) 100,00 %
24.05.2018 10:50 18,7 C 18,4 C 18,7 C 80 % 0 cb 1016,4 hPa 0,0 l/m 3,2 km/h (1 Bft) S-SW 202 10 min 0,000 mm 459 W/m 15,2 C 18,7 C 12,9 km/h (3 Bft) 100,00 %
24.05.2018 11:00 18,8 C 18,7 C 18,9 C 78 % 0 cb 1016,5 hPa 0,0 l/m 3,2 km/h (1 Bft) S 180 10 min 0,254 mm 399 W/m 14,9 C 18,8 C 9,7 km/h (2 Bft) 100,00 %
24.05.2018 11:10 18,7 C 18,7 C 18,8 C 79 % 0 cb 1016,5 hPa 0,0 l/m 4,8 km/h (1 Bft) S-SO 157 10 min 0,000 mm 285 W/m 15,0 C 18,7 C 8,0 km/h (2 Bft) 100,00 %
24.05.2018 11:20 18,4 C 18,4 C 18,7 C 80 % 0 cb 1016,5 hPa 0,0 l/m 3,2 km/h (1 Bft) S-SO 157 10 min 0,000 mm 258 W/m 14,9 C 18,4 C 9,7 km/h (2 Bft) 100,00 %
24.05.2018 11:30 17,9 C 17,9 C 18,4 C 81 % 0 cb 1016,5 hPa 0,0 l/m 4,8 km/h (1 Bft) S 180 10 min 0,000 mm 232 W/m 14,6 C 17,9 C 9,7 km/h (2 Bft) 100,00 %
24.05.2018 11:40 17,8 C 17,8 C 17,9 C 82 % 0 cb 1016,5 hPa 0,0 l/m 3,2 km/h (1 Bft) S 180 10 min 0,000 mm 239 W/m 14,7 C 17,8 C 8,0 km/h (2 Bft) 99,56 %
24.05.2018 11:50 17,7 C 17,7 C 17,8 C 82 % 0 cb 1016,4 hPa 0,0 l/m 3,2 km/h (1 Bft) SO 135 10 min 0,000 mm 229 W/m 14,6 C 17,7 C 6,4 km/h (2 Bft) 100,00 %
24.05.2018 12:00 17,7 C 17,7 C 17,7 C 83 % 0 cb 1016,3 hPa 0,0 l/m 1,6 km/h (1 Bft) SO 135 10 min 0,152 mm 253 W/m 14,8 C 17,7 C 4,8 km/h (1 Bft) 100,00 %
24.05.2018 12:10 17,8 C 17,7 C 17,8 C 81 % 0 cb 1016,3 hPa 0,0 l/m 3,2 km/h (1 Bft) SO 135 10 min 0,000 mm 278 W/m 14,5 C 17,8 C 6,4 km/h (2 Bft) 100,00 %
24.05.2018 12:20 17,9 C 17,8 C 17,9 C 81 % 0 cb 1016,2 hPa 0,0 l/m 3,2 km/h (1 Bft) S 180 10 min 0,000 mm 339 W/m 14,6 C 17,9 C 6,4 km/h (2 Bft) 100,00 %
24.05.2018 12:30 18,3 C 17,9 C 18,3 C 82 % 0 cb 1016,2 hPa 0,0 l/m 3,2 km/h (1 Bft) S-SW 202 10 min 0,000 mm 466 W/m 15,2 C 18,3 C 6,4 km/h (2 Bft) 100,00 %
24.05.2018 12:40 18,4 C 18,3 C 18,4 C 80 % 0 cb 1016,2 hPa 0,0 l/m 1,6 km/h (1 Bft) S-SW 202 10 min 0,000 mm 471 W/m 14,9 C 18,4 C 4,8 km/h (1 Bft) 100,00 %
24.05.2018 12:50 18,6 C 18,4 C 18,6 C 78 % 0 cb 1016,2 hPa 0,0 l/m 1,6 km/h (1 Bft) O-SO 112 10 min 0,000 mm 413 W/m 14,7 C 18,6 C 6,4 km/h (2 Bft) 100,00 %
24.05.2018 13:00 18,9 C 18,6 C 18,9 C 83 % 0 cb 1016,0 hPa 0,0 l/m 1,6 km/h (1 Bft) O-SO 112 10 min 0,229 mm 847 W/m 15,9 C 18,9 C 4,8 km/h (1 Bft) 100,00 %
24.05.2018 13:10 19,4 C 18,9 C 19,4 C 77 % 0 cb 1016,0 hPa 0,0 l/m 1,6 km/h (1 Bft) SO 135 10 min 0,000 mm 1167 W/m 15,3 C 19,4 C 6,4 km/h (2 Bft) 100,00 %
24.05.2018 13:20 20,0 C 19,4 C 20,0 C 78 % 0 cb 1015,9 hPa 0,0 l/m 3,2 km/h (1 Bft) O 90 10 min 0,000 mm 1151 W/m 16,0 C 20,0 C 8,0 km/h (2 Bft) 100,00 %
24.05.2018 13:30 20,3 C 20,0 C 20,3 C 77 % 0 cb 1015,9 hPa 0,0 l/m 3,2 km/h (1 Bft) O-SO 112 10 min 0,000 mm 1013 W/m 16,1 C 20,3 C 11,3 km/h (2 Bft) 100,00 %
24.05.2018 13:40 20,8 C 20,3 C 20,8 C 76 % 0 cb 1015,9 hPa 0,0 l/m 3,2 km/h (1 Bft) O-SO 112 10 min 0,000 mm 993 W/m 16,4 C 20,8 C 11,3 km/h (2 Bft) 100,00 %
24.05.2018 13:50 21,0 C 20,8 C 21,0 C 73 % 0 cb 1015,7 hPa 0,0 l/m 4,8 km/h (1 Bft) O-SO 112 10 min 0,000 mm 918 W/m 16,0 C 21,0 C 11,3 km/h (2 Bft) 100,00 %
24.05.2018 14:00 21,3 C 21,0 C 21,3 C 72 % 0 cb 1015,7 hPa 0,0 l/m 3,2 km/h (1 Bft) SO 135 10 min 0,559 mm 891 W/m 16,0 C 21,3 C 11,3 km/h (2 Bft) 100,00 %
24.05.2018 14:10 21,1 C 21,1 C 21,3 C 70 % 0 cb 1015,5 hPa 0,0 l/m 4,8 km/h (1 Bft) O-NO 67 10 min 0,000 mm 875 W/m 15,4 C 21,1 C 12,9 km/h (3 Bft) 100,00 %
24.05.2018 14:20 21,4 C 21,1 C 21,4 C 71 % 0 cb 1015,4 hPa 0,0 l/m 3,2 km/h (1 Bft) S 180 10 min 0,000 mm 882 W/m 15,9 C 21,4 C 8,0 km/h (2 Bft) 100,00 %
24.05.2018 14:30 22,1 C 21,4 C 22,1 C 71 % 0 cb 1015,2 hPa 0,0 l/m 1,6 km/h (1 Bft) NO 45 10 min 0,000 mm 865 W/m 16,6 C 22,1 C 6,4 km/h (2 Bft) 100,00 %
24.05.2018 14:40 22,3 C 22,1 C 22,3 C 68 % 0 cb 1015,1 hPa 0,0 l/m 3,2 km/h (1 Bft) O-NO 67 10 min 0,000 mm 958 W/m 16,1 C 22,3 C 8,0 km/h (2 Bft) 100,00 %
24.05.2018 14:50 22,4 C 22,3 C 22,4 C 69 % 0 cb 1014,9 hPa 0,0 l/m 3,2 km/h (1 Bft) O-NO 67 10 min 0,000 mm 884 W/m 16,4 C 22,4 C 9,7 km/h (2 Bft) 100,00 %
24.05.2018 15:00 22,6 C 22,4 C 22,6 C 69 % 0 cb 1014,7 hPa 0,0 l/m 3,2 km/h (1 Bft) O-NO 67 10 min 0,508 mm 874 W/m 16,6 C 22,6 C 8,0 km/h (2 Bft) 100,00 %
24.05.2018 15:10 22,8 C 22,6 C 22,8 C 65 % 0 cb 1014,6 hPa 0,0 l/m 3,2 km/h (1 Bft) O 90 10 min 0,000 mm 874 W/m 15,9 C 22,8 C 9,7 km/h (2 Bft) 98,25 %
24.05.2018 15:20 22,9 C 22,7 C 22,9 C 65 % 0 cb 1014,4 hPa 0,0 l/m 1,6 km/h (1 Bft) O-NO 67 10 min 0,000 mm 893 W/m 16,0 C 22,9 C 4,8 km/h (1 Bft) 100,00 %
24.05.2018 15:30 23,4 C 22,9 C 23,4 C 63 % 0 cb 1014,5 hPa 0,0 l/m 1,6 km/h (1 Bft) SO 135 10 min 0,000 mm 879 W/m 15,9 C 23,4 C 4,8 km/h (1 Bft) 100,00 %
24.05.2018 15:40 23,3 C 23,3 C 23,6 C 62 % 0 cb 1014,5 hPa 0,0 l/m 1,6 km/h (1 Bft) O-SO 112 10 min 0,000 mm 287 W/m 15,6 C 23,3 C 6,4 km/h (2 Bft) 100,00 %
24.05.2018 15:50 23,1 C 23,1 C 23,3 C 63 % 0 cb 1014,4 hPa 0,0 l/m 3,2 km/h (1 Bft) S 180 10 min 0,000 mm 366 W/m 15,7 C 23,1 C 8,0 km/h (2 Bft) 100,00 %
24.05.2018 16:00 22,8 C 22,8 C 23,1 C 66 % 0 cb 1014,5 hPa 0,0 l/m 3,2 km/h (1 Bft) S 180 10 min 0,305 mm 318 W/m 16,1 C 22,8 C 8,0 km/h (2 Bft) 100,00 %
24.05.2018 16:10 22,3 C 22,3 C 22,8 C 64 % 0 cb 1014,4 hPa 0,0 l/m 3,2 km/h (1 Bft) S 180 10 min 0,000 mm 230 W/m 15,2 C 22,3 C 4,8 km/h (1 Bft) 100,00 %
24.05.2018 16:20 22,1 C 22,1 C 22,3 C 64 % 0 cb 1014,3 hPa 0,0 l/m 1,6 km/h (1 Bft) S-SO 157 10 min 0,000 mm 183 W/m 15,0 C 22,1 C 6,4 km/h (2 Bft) 100,00 %
24.05.2018 16:30 21,9 C 21,9 C 22,1 C 71 % 0 cb 1014,2 hPa 0,2 l/m 1,6 km/h (1 Bft) S-SO 157 0 min 0,000 mm 127 W/m 16,4 C 21,9 C 8,0 km/h (2 Bft) 100,00 %
24.05.2018 16:40 21,3 C 21,3 C 21,9 C 74 % 0 cb 1014,3 hPa 0,4 l/m 1,6 km/h (1 Bft) S-SO 157 0 min 0,000 mm 76 W/m 16,5 C 21,3 C 6,4 km/h (2 Bft) 100,00 %
24.05.2018 16:50 20,1 C 20,1 C 21,3 C 78 % 0 cb 1014,4 hPa 0,0 l/m 4,8 km/h (1 Bft) S-SO 157 0 min 0,000 mm 28 W/m 16,1 C 20,1 C 16,1 km/h (3 Bft) 100,00 %
24.05.2018 17:00 19,0 C 19,0 C 20,1 C 84 % 0 cb 1014,6 hPa 1,0 l/m 4,8 km/h (1 Bft) O-SO 112 0 min 0,076 mm 23 W/m 16,2 C 19,0 C 14,5 km/h (3 Bft) 100,00 %
24.05.2018 17:10 18,2 C 18,2 C 18,9 C 87 % 0 cb 1014,7 hPa 1,0 l/m 3,2 km/h (1 Bft) O 90 0 min 0,000 mm 33 W/m 16,0 C 18,2 C 12,9 km/h (3 Bft) 100,00 %
24.05.2018 17:20 17,6 C 17,6 C 18,2 C 89 % 0 cb 1014,7 hPa 0,8 l/m 4,8 km/h (1 Bft) O 90 0 min 0,000 mm 49 W/m 15,8 C 17,6 C 14,5 km/h (3 Bft) 100,00 %
24.05.2018 17:30 17,3 C 17,3 C 17,6 C 91 % 0 cb 1014,7 hPa 0,0 l/m 3,2 km/h (1 Bft) O-NO 67 0 min 0,000 mm 58 W/m 15,8 C 17,3 C 16,1 km/h (3 Bft) 100,00 %
24.05.2018 17:40 17,1 C 17,1 C 17,3 C 91 % 0 cb 1014,8 hPa 0,2 l/m 3,2 km/h (1 Bft) O 90 0 min 0,000 mm 63 W/m 15,6 C 17,1 C 11,3 km/h (2 Bft) 100,00 %
24.05.2018 17:50 16,8 C 16,8 C 17,1 C 91 % 0 cb 1014,7 hPa 0,0 l/m 3,2 km/h (1 Bft) O 90 0 min 0,000 mm 83 W/m 15,3 C 16,8 C 14,5 km/h (3 Bft) 100,00 %
24.05.2018 18:00 16,8 C 16,8 C 16,8 C 92 % 0 cb 1014,8 hPa 0,0 l/m 1,6 km/h (1 Bft) NO 45 0 min 0,025 mm 125 W/m 15,5 C 16,8 C 4,8 km/h (1 Bft) 100,00 %
24.05.2018 18:10 16,9 C 16,8 C 16,9 C 92 % 0 cb 1014,7 hPa 0,0 l/m 3,2 km/h (1 Bft) N 360 10 min 0,000 mm 364 W/m 15,6 C 16,9 C 6,4 km/h (2 Bft) 100,00 %
24.05.2018 18:20 17,1 C 16,9 C 17,1 C 92 % 0 cb 1014,7 hPa 0,0 l/m 3,2 km/h (1 Bft) N-NO 22 10 min 0,000 mm 185 W/m 15,8 C 17,1 C 9,7 km/h (2 Bft) 100,00 %
24.05.2018 18:30 17,2 C 17,1 C 17,2 C 91 % 0 cb 1014,6 hPa 0,0 l/m 3,2 km/h (1 Bft) N-NO 22 0 min 0,000 mm 149 W/m 15,7 C 17,2 C 9,7 km/h (2 Bft) 100,00 %
24.05.2018 18:40 17,0 C 17,0 C 17,2 C 90 % 0 cb 1014,5 hPa 0,0 l/m 4,8 km/h (1 Bft) N 360 0 min 0,000 mm 109 W/m 15,3 C 17,0 C 9,7 km/h (2 Bft) 100,00 %
24.05.2018 18:50 16,8 C 16,8 C 17,0 C 90 % 0 cb 1014,4 hPa 0,0 l/m 3,2 km/h (1 Bft) N 360 0 min 0,000 mm 86 W/m 15,1 C 16,8 C 6,4 km/h (2 Bft) 100,00 %
24.05.2018 19:00 16,7 C 16,7 C 16,8 C 91 % 0 cb 1014,4 hPa 0,0 l/m 1,6 km/h (1 Bft) N-NO 22 0 min 0,076 mm 67 W/m 15,2 C 16,7 C 4,8 km/h (1 Bft) 100,00 %
24.05.2018 19:10 16,7 C 16,6 C 16,7 C 91 % 0 cb 1014,5 hPa 0,0 l/m 1,6 km/h (1 Bft) N-NO 22 0 min 0,000 mm 67 W/m 15,2 C 16,7 C 3,2 km/h (1 Bft) 100,00 %
24.05.2018 19:20 16,5 C 16,5 C 16,7 C 92 % 0 cb 1014,7 hPa 0,0 l/m 3,2 km/h (1 Bft) N-NO 22 0 min 0,000 mm 67 W/m 15,2 C 16,5 C 4,8 km/h (1 Bft) 100,00 %
24.05.2018 19:30 16,4 C 16,4 C 16,5 C 92 % 0 cb 1015,0 hPa 0,0 l/m 1,6 km/h (1 Bft) N-NO 22 0 min 0,000 mm 60 W/m 15,1 C 16,4 C 8,0 km/h (2 Bft) 100,00 %
24.05.2018 19:40 16,3 C 16,3 C 16,4 C 92 % 0 cb 1015,1 hPa 0,0 l/m 3,2 km/h (1 Bft) N 360 0 min 0,000 mm 53 W/m 15,0 C 16,3 C 6,4 km/h (2 Bft) 100,00 %
24.05.2018 19:50 16,3 C 16,3 C 16,3 C 93 % 0 cb 1015,2 hPa 0,0 l/m 1,6 km/h (1 Bft) N-NW 337 0 min 0,000 mm 42 W/m 15,2 C 16,3 C 8,0 km/h (2 Bft) 100,00 %
24.05.2018 20:00 16,3 C 16,2 C 16,3 C 93 % 0 cb 1015,0 hPa 0,0 l/m 3,2 km/h (1 Bft) N-NO 22 0 min 0,025 mm 32 W/m 15,2 C 16,3 C 8,0 km/h (2 Bft) 100,00 %
24.05.2018 20:10 16,2 C 16,2 C 16,3 C 93 % 0 cb 1015,3 hPa 0,0 l/m 3,2 km/h (1 Bft) N-NW 337 0 min 0,000 mm 26 W/m 15,1 C 16,2 C 6,4 km/h (2 Bft) 100,00 %
24.05.2018 20:20 16,2 C 16,2 C 16,3 C 94 % 0 cb 1015,5 hPa 0,0 l/m 1,6 km/h (1 Bft) W 270 0 min 0,000 mm 18 W/m 15,2 C 16,2 C 4,8 km/h (1 Bft) 100,00 %
24.05.2018 20:30 16,2 C 16,2 C 16,2 C 93 % 0 cb 1015,4 hPa 0,0 l/m 0,0 km/h (0 Bft) W 270 0 min 0,000 mm 16 W/m 15,1 C 16,2 C 1,6 km/h (1 Bft) 99,56 %
24.05.2018 20:40 16,2 C 16,2 C 16,2 C 94 % 0 cb 1015,4 hPa 0,0 l/m 0,0 km/h (0 Bft) W 270 0 min 0,000 mm 9 W/m 15,2 C 16,2 C 3,2 km/h (1 Bft) 100,00 %
24.05.2018 20:50 16,1 C 16,1 C 16,2 C 94 % 0 cb 1015,3 hPa 0,0 l/m 1,6 km/h (1 Bft) W 270 0 min 0,000 mm 5 W/m 15,1 C 16,1 C 4,8 km/h (1 Bft) 100,00 %
24.05.2018 21:00 16,0 C 16,0 C 16,1 C 94 % 0 cb 1015,5 hPa 0,0 l/m 1,6 km/h (1 Bft) NW 315 0 min 0,000 mm 5 W/m 15,0 C 16,0 C 4,8 km/h (1 Bft) 100,00 %
24.05.2018 21:10 15,9 C 15,9 C 16,0 C 94 % 0 cb 1015,3 hPa 0,2 l/m 0,0 km/h (0 Bft) NW 315 0 min 0,000 mm 5 W/m 14,9 C 15,9 C 3,2 km/h (1 Bft) 99,12 %
24.05.2018 21:20 15,9 C 15,9 C 15,9 C 94 % 0 cb 1015,3 hPa 0,0 l/m 0,0 km/h (0 Bft) NW 315 0 min 0,000 mm 0 W/m 14,9 C 15,9 C 1,6 km/h (1 Bft) 100,00 %
24.05.2018 21:30 15,9 C 15,9 C 15,9 C 94 % 0 cb 1015,4 hPa 0,0 l/m 0,0 km/h (0 Bft) NW 315 0 min 0,000 mm 0 W/m 14,9 C 15,9 C 3,2 km/h (1 Bft) 100,00 %
24.05.2018 21:40 15,8 C 15,8 C 15,9 C 95 % 0 cb 1015,4 hPa 0,0 l/m 0,0 km/h (0 Bft) N 0 0 min 0,000 mm 0 W/m 15,0 C 15,8 C 0,0 km/h (0 Bft) 100,00 %
24.05.2018 21:50 15,8 C 15,8 C 15,8 C 95 % 0 cb 1015,4 hPa 0,0 l/m 0,0 km/h (0 Bft) N 0 0 min 0,000 mm 0 W/m 15,0 C 15,8 C 0,0 km/h (0 Bft) 98,68 %
24.05.2018 22:00 15,7 C 15,7 C 15,8 C 95 % 0 cb 1015,5 hPa 0,0 l/m 0,0 km/h (0 Bft) N 0 0 min 0,000 mm 0 W/m 14,9 C 15,7 C 0,0 km/h (0 Bft) 100,00 %
24.05.2018 22:10 15,7 C 15,7 C 15,7 C 95 % 0 cb 1015,7 hPa 0,0 l/m 0,0 km/h (0 Bft) N 0 0 min 0,000 mm 0 W/m 14,9 C 15,7 C 0,0 km/h (0 Bft) 100,00 %
24.05.2018 22:20 15,6 C 15,6 C 15,7 C 95 % 0 cb 1015,6 hPa 0,0 l/m 0,0 km/h (0 Bft) N 0 0 min 0,000 mm 0 W/m 14,8 C 15,6 C 0,0 km/h (0 Bft) 100,00 %
24.05.2018 22:30 15,6 C 15,6 C 15,7 C 95 % 0 cb 1015,5 hPa 0,0 l/m 0,0 km/h (0 Bft) NW 315 0 min 0,000 mm 0 W/m 14,8 C 15,6 C 3,2 km/h (1 Bft) 99,56 %
24.05.2018 22:40 15,6 C 15,6 C 15,6 C 95 % 0 cb 1015,6 hPa 0,0 l/m 3,2 km/h (1 Bft) N 360 0 min 0,000 mm 0 W/m 14,8 C 15,6 C 8,0 km/h (2 Bft) 100,00 %
24.05.2018 22:50 15,6 C 15,5 C 15,6 C 96 % 0 cb 1015,5 hPa 0,0 l/m 3,2 km/h (1 Bft) N 360 0 min 0,000 mm 0 W/m 15,0 C 15,6 C 9,7 km/h (2 Bft) 100,00 %
24.05.2018 23:00 15,6 C 15,5 C 15,6 C 96 % 0 cb 1015,7 hPa 0,0 l/m 3,2 km/h (1 Bft) N-NO 22 0 min 0,000 mm 0 W/m 15,0 C 15,6 C 8,0 km/h (2 Bft) 100,00 %
24.05.2018 23:10 15,5 C 15,5 C 15,6 C 96 % 0 cb 1015,6 hPa 0,0 l/m 3,2 km/h (1 Bft) N-NO 22 0 min 0,000 mm 0 W/m 14,9 C 15,5 C 6,4 km/h (2 Bft) 100,00 %
24.05.2018 23:20 15,4 C 15,4 C 15,5 C 96 % 0 cb 1015,6 hPa 0,0 l/m 1,6 km/h (1 Bft) N-NO 22 0 min 0,000 mm 0 W/m 14,8 C 15,4 C 3,2 km/h (1 Bft) 100,00 %
24.05.2018 23:30 15,3 C 15,3 C 15,4 C 95 % 0 cb 1015,7 hPa 0,0 l/m 0,0 km/h (0 Bft) N-NO 22 0 min 0,000 mm 0 W/m 14,5 C 15,3 C 4,8 km/h (1 Bft) 100,00 %
24.05.2018 23:40 15,2 C 15,2 C 15,3 C 95 % 0 cb 1015,7 hPa 0,0 l/m 0,0 km/h (0 Bft) N 0 0 min 0,000 mm 0 W/m 14,4 C 15,2 C 0,0 km/h (0 Bft) 100,00 %
24.05.2018 23:50 15,0 C 15,0 C 15,2 C 95 % 0 cb 1015,7 hPa 0,0 l/m 0,0 km/h (0 Bft) N 0 0 min 0,000 mm 0 W/m 14,2 C 15,0 C 0,0 km/h (0 Bft) 100,00 %
_ Min-Zeit 06:10 06:10 06:10 15:40 00:00 16:30 - 03:00 - - - - - 05:40 06:00 09:40 04:00
Minimum _ 13,0 C 13,0 C 13,1 C 62 % 0 cb 1014,2 hPa - 0,0 km/h (0 Bft) - - - - - 11,9 C 13,1 C 0,0 km/h (0 Bft) 98,25 %
_ Max-Zeit 15:40 15:40 15:40 22:50 00:00 00:00 17:00 02:00 - - 07:10 14:00 13:10 15:00 15:30 16:50 00:00
Maximum _ 23,6 C 23,3 C 23,6 C 96 % 0 cb 1016,8 hPa 1,0 l/m 6,4 km/h
N-NO (2 Bft)
- - 10 min 0,559 mm 1167 W/m 16,6 C 23,4 C 16,1 km/h
S (3 Bft)
100,00 %
Durchschnitt _ 16,7 C 16,6 C 16,7 C 87 % 0 cb 1015,8 hPa #3,8 l/m 2,8 km/h (1 Bft) N-NO - #9:40 h #2,565 mm 313 W/m 14,3 C 16,7 C 7,7 km/h (2 Bft) 99,92 %
Wetterstation Gdesweiler